This is the latest recevied weather packets stored in our database for station/object W5MAI. If no packets are shown the sender has not sent any weather packets the latest 10 day(s).
| Time | Temp. | Humidity | Pressure | Rain* | Wind** | Luminosity | Snow |
|---|---|---|---|---|---|---|---|
| 1788674603 | 27.78° C | 72% | 1015.6 hPa | 0 mm | - | 0 W/m² | - |
| 1788674007 | 27.78° C | 71% | 1015.5 hPa | 0 mm | - | 0 W/m² | - |
| 1788673417 | 27.78° C | 70% | 1015.4 hPa | 0 mm | - | 0 W/m² | - |
| 1788672821 | 27.78° C | 70% | 1015.4 hPa | 0 mm | - | 0 W/m² | - |
| 1788672206 | 28.33° C | 69% | 1015.5 hPa | 0 mm | - | 0 W/m² | - |
| 1788671619 | 28.33° C | 69% | 1015.5 hPa | 0 mm | - | 0 W/m² | - |
| 1788671003 | 28.33° C | 69% | 1015.5 hPa | 0 mm | - | 0 W/m² | - |
| 1788670433 | 28.33° C | 69% | 1015.7 hPa | 0 mm | - | 0 W/m² | - |
| 1788669804 | 28.89° C | 69% | 1015.6 hPa | 0 mm | - | 0 W/m² | - |
| 1788669234 | 28.89° C | 68% | 1015.8 hPa | 0 mm | - | 0 W/m² | - |
| 1788668652 | 28.89° C | 68% | 1015.8 hPa | 0 mm | - | 0 W/m² | - |
| 1788668003 | 29.44° C | 67% | 1015.6 hPa | 0 mm | - | 0 W/m² | - |
| 1788667418 | 29.44° C | 67% | 1015.6 hPa | 0 mm | - | 0 W/m² | - |
| 1788666838 | 29.44° C | 67% | 1015.5 hPa | 0 mm | - | 0 W/m² | - |
| 1788666207 | 30° C | 66% | 1015.4 hPa | 0 mm | - | 0 W/m² | - |
| 1788665637 | 30° C | 65% | 1015.2 hPa | 0 mm | - | 0 W/m² | - |
| 1788665022 | 30° C | 64% | 1015.1 hPa | 0 mm | - | 0 W/m² | - |
| 1788663243 | 31.11° C | 60% | 1014.5 hPa | 0 mm | - | 0 W/m² | - |
| 1788662605 | 31.11° C | 57% | 1014.2 hPa | 0 mm | - | 0 W/m² | - |
| 1788662032 | 31.11° C | 57% | 1014 hPa | 0 mm | - | 0 W/m² | - |
| 1788661461 | 31.11° C | 56% | 1013.5 hPa | 0 mm | - | 0 W/m² | - |
| 1788660825 | 31.11° C | 55% | 1013.3 hPa | 0 mm | - | 0 W/m² | - |
| 1788660261 | 31.11° C | 55% | 1013.2 hPa | 0 mm | - | 0 W/m² | - |
| 1788659606 | 30° C | 57% | 1013.1 hPa | 0 mm | - | 0 W/m² | - |
| 1788657827 | 31.67° C | 54% | 1012.8 hPa | 0 mm | - | 0 W/m² | - |
* Rain latest hour (hover to see other rain measurements)
** Current wind speed in m/s (hover to see current wind gust speed)